Location: Boiro
(42.6475°N, 8.8834°W)
Time: 23:44:13
(UTC+01:00)

Vanguard 2 Rocket - Pass Details

Date: 14 December 2021
Orbit: 553 x 3325 km, 32.9° (Epoch: 26 January)

Event Time Altitude Azimuth Distance (km) Brightness Sun altitude
Rises 19:46:17 0° 256° (WSW) 2,903 11.2 -18.3°
Reaches altitude 10° 19:48:35 10° 242° (WSW) 2,156 10.0 -18.7°
Maximum altitude 19:52:40 26° 186° (S) 1,664 8.4 -19.4°
Drops below altitude 10° 19:58:29 10° 133° (SE) 3,168 9.3 -20.5°
Enters shadow 19:58:50 - 131° (SE) 3,288 9.4 -20.5°
